PEGASUS DEB, 39922

Orbit data source: Space-Track

PEGASUS DEB, 39922 is space debris in LEO originally from a launch on Thu, 19 May 1994 UTC launched from the Air Force Western Test Range (AFWTR). Debris objects in space refer to the collection of defunct objects orbiting the Earth. Examples of debris include non-operational satellites, rocket bodies, and fragments generated from explosions, collisions, or faulty payload assembly.

Loading next visibility...
Identifier
39922, 1994-029AFV
Orbit
LEO
Country
Flag of USUS
Related business
Manufacturer
Unknown
Mission
Spacecraft
Bus & Motor
Unknown
Mass
Unknown
Launch date (UTC)
1994-05-19 (32 years ago)
Launch vehicle
Unknown
Launch site
Air Force Western Test Range (AFWTR)
Object type
Payload
Rocket body
Debris
Shape & HBR
Unknown shape, 0.1 m
Radar Cross Section
Small (<0.1 m²)

Expand to show TLE details & history
Last TLE update: 2 weeks ago

TLE from 2 weeks ago
0 PEGASUS DEB
1 39922U 94029AFV 26047.85196878  .00008219  00000-0  72167-3 0  9996
2 39922  81.5844 103.0316 0109701   6.6819 353.5828 14.91881401626857
Epoch: 2026-02-16T20:26Z
TLE epoch observation values (Epoch: 2026-02-16T20:26:50.102Z)
Latitude
-0.00005°
Longitude
9.48246°
Altitude
519.101 km
Speed
7.645 km/s
True Right ascension
06h 52m 07s
True Declination
0° 00' 00"
Sunlit
Object was in full shadow at epoch
Visualization orbit readout
Latitude
Unknown
Longitude
Unknown
Altitude
Unknown
Speed
Unknown
Apparent Right ascension
Unknown
Apparent Declination
Unknown
Sunlit
N/A
Visualization observer readout
Local Sidereal Time
22:05:06
Azimuth
Unknown
Elevation
Unknown
Doppler factor
Unknown
Orbital elements
Apogee altitude
665.549 km
Perigee altitude
512.686 km
Semi-major axis
6,967.255 km
Eccentricity
0.01097
Inclination
81.5844°
RAAN
103.0316°
Arg. of periapsis
6.6819°
True anomaly
353.44036°
Mean anomaly
353.5828°
Eccentric anomaly
353.51178°
Mean motion
3.73208 °/min
Orbital period
96.46 mins
BSTAR
0.00072167
Loading maneuver chart data...
Computing Atmospheric mass density...
Loading historical data...
Loading historical data...
Loading historical data...
Loading historical data...
Loading historical data...
Loading historical data...
Loading historical data...

Documentation

Showing up to 5 results
|